"Pseudo-MPEC" for P10NEYp

Created 2019 May 21 8:07:14 UT using Find_Orb

Click here for an explanation of pseudo-MPECs

 
 Astrometry: 
     P10NEYp  C2019 05 08aQlL-vhX(OL#'UZH7S!MlD+IuepRfh9q5?$1a\m7/J/ji8=wnjC8F51
     P10NEYp  C2019 05 08vlg;s[_3Rt,W_nm,_VAstrometryVnF\79h-D1ytWg5t:p3MI-ZZF51
     P10NEYp  C2019 05 08F('Rredacted;g^b[^Erwya*CL**K-Xe$km'R';R/B*vF1ek]jx!F51
     P10NEYp ^C2019 05 15hK_`/0mgOqXvRdWmf6pF'58eR\cS$h8dwXd+)v(\`_O?v6#$K;i#695
     P10NEYp ^C2019 05 15Q,0clickVutherer$R]0\Ylt+Gvfor1gSbWVf(explanationK/`695

Station data:
(695) Kitt Peak  (N31.958398 W111.594670)  US/Arizona.
(F51) Pan-STARRS 1, Haleakala  (N20.707235 W156.255910)  US/Hawaii.
   Observers N. Primak, A. Schultz, S. Watters, J. Thiel, T. Goggia. Measurer
   PS1 Science Consortium. 1.8-m Ritchey-Chrétien + CCD.

Orbital elements:  P10NEYp
   Perihelion 2019 Sep 23.856432 +/- 404 TT = 20:33:15 (JD 2458750.356432)
Epoch 2019 May 15.0 TT = JDT 2458618.5   Earth MOID: 0.4288   Ma: 0.0756
M 309.51432929 +/- 90               (J2000 ecliptic)          AutoNEOCP
n   0.38288364 +/- 0.123            Peri.  152.54411 +/- 80
a   1.87827066 +/- 0.401            Node   134.78102 +/- 14
e   0.2425821 +/- 0.129             Incl.   24.16859 +/- 4.7
P   2.57/940.22d           H 20.4   G  0.15   U 11.4  SR
q 1.42263581 +/- 0.828    Q 2.33390550 +/- 0.838
From 5 observations 2019 May 8-15; mean residual 0".98
Residuals in arcseconds: 
190508 F51  .33+  .63+    190508 F51  .32-  .62-    190515 695  1.1-  1.8+    
190508 F51  .01-  .00     190515 695  1.1+  1.8-    

Ephemerides (geocentric):
Date (UTC) HH   RA              Dec         delta   r     elong  mag " sig PA
---- -- -- --  -------------   -----------  ------ ------ -----  --- ---- ---
2019 05 21 08  13 05 48.515   +38 36 11.16  1.0062 1.6512 109.8 22.9  410  56
2019 05 21 09  13 05 48.252   +38 35 43.83  1.0064 1.6511 109.8 22.9  414  56
2019 05 21 10  13 05 47.994   +38 35 16.45  1.0065 1.6510 109.8 22.9  418  56
2019 05 21 11  13 05 47.740   +38 34 49.02  1.0066 1.6509 109.7 22.9  422  56
2019 05 21 12  13 05 47.490   +38 34 21.54  1.0067 1.6507 109.7 22.9  426  56
2019 05 21 13  13 05 47.245   +38 33 54.02  1.0069 1.6506 109.7 22.9  430  56
2019 05 21 14  13 05 47.004   +38 33 26.44  1.0070 1.6505 109.7 22.9  434  56
2019 05 21 15  13 05 46.767   +38 32 58.82  1.0071 1.6504 109.6 22.9  439  56
2019 05 21 16  13 05 46.534   +38 32 31.15  1.0073 1.6502 109.6 22.9  443  56
2019 05 21 17  13 05 46.305   +38 32 03.43  1.0074 1.6501 109.6 22.9  447  56
2019 05 21 18  13 05 46.081   +38 31 35.66  1.0075 1.6500 109.6 22.9  451  56
2019 05 21 19  13 05 45.861   +38 31 07.84  1.0076 1.6499 109.5 22.9  455  56
2019 05 21 20  13 05 45.645   +38 30 39.98  1.0078 1.6497 109.5 22.9  460  56
2019 05 21 21  13 05 45.434   +38 30 12.06  1.0079 1.6496 109.5 22.9  464  56
2019 05 21 22  13 05 45.226   +38 29 44.10  1.0080 1.6495 109.5 22.9  468  56
2019 05 21 23  13 05 45.023   +38 29 16.09  1.0082 1.6494 109.5 22.9  473  56
2019 05 22 00  13 05 44.824   +38 28 48.03  1.0083 1.6492 109.4 22.9  477  56
2019 05 22 01  13 05 44.630   +38 28 19.92  1.0084 1.6491 109.4 22.9  481  56
2019 05 22 02  13 05 44.440   +38 27 51.76  1.0085 1.6490 109.4 22.9  486  56
2019 05 22 03  13 05 44.253   +38 27 23.56  1.0087 1.6489 109.4 22.9  490  56
2019 05 22 04  13 05 44.072   +38 26 55.31  1.0088 1.6487 109.3 22.9  495  56
2019 05 22 05  13 05 43.894   +38 26 27.01  1.0089 1.6486 109.3 22.9  499  56
2019 05 22 06  13 05 43.721   +38 25 58.66  1.0091 1.6485 109.3 22.9  503  55
2019 05 22 07  13 05 43.552   +38 25 30.26  1.0092 1.6484 109.3 22.9  508  55
2019 05 22 08  13 05 43.387   +38 25 01.81  1.0093 1.6482 109.2 22.9  512  55
2019 05 22 09  13 05 43.226   +38 24 33.32  1.0095 1.6481 109.2 22.9  517  55
2019 05 22 10  13 05 43.070   +38 24 04.78  1.0096 1.6480 109.2 22.9  521  55
2019 05 22 11  13 05 42.918   +38 23 36.19  1.0097 1.6479 109.2 22.9  526  55
2019 05 22 12  13 05 42.770   +38 23 07.55  1.0098 1.6477 109.1 22.9  530  55
2019 05 22 13  13 05 42.627   +38 22 38.87  1.0100 1.6476 109.1 22.9  535  55
2019 05 22 14  13 05 42.487   +38 22 10.14  1.0101 1.6475 109.1 22.9  540  55
2019 05 22 15  13 05 42.352   +38 21 41.36  1.0102 1.6474 109.1 22.9  544  55
2019 05 22 16  13 05 42.221   +38 21 12.53  1.0104 1.6472 109.1 22.9  549  55
2019 05 22 17  13 05 42.095   +38 20 43.65  1.0105 1.6471 109.0 22.9  554  55
2019 05 22 18  13 05 41.972   +38 20 14.73  1.0106 1.6470 109.0 22.9  558  55
2019 05 22 19  13 05 41.854   +38 19 45.76  1.0107 1.6469 109.0 22.9  563  55
2019 05 22 20  13 05 41.740   +38 19 16.74  1.0109 1.6467 109.0 22.9  568  55
2019 05 22 21  13 05 41.631   +38 18 47.68  1.0110 1.6466 108.9 22.9  572  55
2019 05 22 22  13 05 41.525   +38 18 18.56  1.0111 1.6465 108.9 22.9  577  55
2019 05 22 23  13 05 41.424   +38 17 49.40  1.0113 1.6464 108.9 22.9  582  55
2019 05 23 00  13 05 41.327   +38 17 20.20  1.0114 1.6462 108.9 22.9  586  55
2019 05 23 01  13 05 41.235   +38 16 50.94  1.0115 1.6461 108.8 22.9  591  55
2019 05 23 02  13 05 41.146   +38 16 21.64  1.0117 1.6460 108.8 22.9  596  55
2019 05 23 03  13 05 41.062   +38 15 52.29  1.0118 1.6459 108.8 22.9  601  55
2019 05 23 04  13 05 40.982   +38 15 22.89  1.0119 1.6457 108.8 22.9  606  55
2019 05 23 05  13 05 40.907   +38 14 53.45  1.0120 1.6456 108.8 22.9  610  55
2019 05 23 06  13 05 40.835   +38 14 23.96  1.0122 1.6455 108.7 22.9  615  55
2019 05 23 07  13 05 40.768   +38 13 54.42  1.0123 1.6454 108.7 22.9  620  55